West Plains, MO

2:55 PM CDT on September 24, 2017 (GMT -0500)
West Plains Municipal

Weather History for KUNO - March, 2014

Change the Weather History Date:

Sunday, March 16, 2014

  Actual Average Record
Temperature  
Mean Temperature 41 °F 48 °F  
Max Temperature 56 °F 60 °F 82 °F (1982)
Min Temperature 25 °F 36 °F 16 °F (1988)
Degree Days  
Heating Degree Days 24 18  
Month to date heating degree days 399 325  
Since 1 July heating degree days 4197 3789  
Cooling Degree Days 0 0  
Month to date cooling degree days 0 0  
Year to date cooling degree days 0 0  
Moisture  
Dew Point 35 °F    
Average Humidity 82    
Maximum Humidity 100    
Minimum Humidity 63    
Precipitation  
Precipitation 1.48 in 0.15 in 1.48 in (2014)
Month to date precipitation 2.68 2.03  
Year to date precipitation 4.53 7.59  
Sea Level Pressure  
Sea Level Pressure 29.86 in    
Wind  
Wind Speed 17 mph (NE)    
Max Wind Speed 30 mph    
Max Gust Speed 41 mph    
Visibility 4 miles    
Events Rain , Snow    
T = Trace of Precipitation, MM = Missing Value Source: NWS Daily Summary

Daily Weather History Graph

Daily Weather History Graph

Search for Another Location

Airport or City:

Trip Planner

Search our weather history database for the weather conditions in past years. The results will help you decide how hot, cold, wet, or windy it might be!

Date:

Astronomy

Mar. 16, 2014 Rise Set
Actual Time 7:17 AM CDT 7:15 PM CDT
Civil Twilight 6:51 AM CDT 7:41 PM CDT
Nautical Twilight 6:21 AM CDT 8:11 PM CDT
Astronomical Twilight 5:50 AM CDT 8:42 PM CDT
Moon 7:32 PM CDT (3/16) 7:01 AM CDT (3/16)
Length of Visible Light 12h 50m
Length of Day
11h 58m
Full, 100% of the Moon is Illuminated
Mar 16
Full
Mar 16
Full
Mar 23
Last Quarter
Mar 30
New
Apr 7
First Quarter

Hourly Weather History & Observations

Time (CDT) Temp. Windchill Dew Point Humidity Pressure Visibility Wind Dir Wind Speed Gust Speed Precip Events Conditions
12:15 AM 57.0 °F - 50.0 °F 77% 29.86 in 10.0 mi SE 5.8 mph - N/A   Overcast
12:53 AM 55.9 °F - 50.0 °F 80% 29.83 in 8.0 mi East 4.6 mph - N/A   Overcast
1:42 AM 54.0 °F - 52.0 °F 93% 29.83 in 2.5 mi East 6.9 mph - 0.05 in Rain Rain
1:49 AM 53.6 °F - 51.8 °F 94% 29.83 in 3.0 mi East 6.9 mph - 0.07 in Rain Rain
1:51 AM 53.6 °F - 51.8 °F 94% 29.83 in 2.5 mi East 8.1 mph - 0.08 in Rain Rain
1:53 AM 54.0 °F - 52.0 °F 93% 29.81 in 2.5 mi ESE 9.2 mph - 0.09 in Rain Rain
2:01 AM 54.0 °F - 53.1 °F 97% 29.83 in 2.5 mi ESE 6.9 mph - 0.04 in Rain Rain
2:14 AM 54.0 °F - 53.1 °F 97% 29.82 in 3.0 mi East 5.8 mph - 0.07 in Rain Rain
2:23 AM 54.0 °F - 53.1 °F 97% 29.82 in 3.0 mi East 6.9 mph - 0.09 in Rain Rain
2:31 AM 53.1 °F - 53.1 °F 100% 29.81 in 2.5 mi East 5.8 mph - 0.11 in Rain Rain
2:45 AM 53.1 °F - 53.1 °F 100% 29.80 in 3.0 mi East 6.9 mph - 0.15 in Rain Rain
2:53 AM 53.1 °F - 53.1 °F 100% 29.78 in 3.0 mi East 5.8 mph - 0.16 in Rain Light Rain
3:53 AM 53.1 °F - 52.0 °F 96% 29.74 in 5.0 mi East 6.9 mph - 0.10 in Rain Light Rain
4:53 AM 53.1 °F - 52.0 °F 96% 29.71 in 5.0 mi ENE 8.1 mph - 0.08 in Rain Light Rain
5:53 AM 53.1 °F - 52.0 °F 96% 29.68 in 5.0 mi NE 10.4 mph - 0.08 in Rain Rain
6:53 AM 52.0 °F - 51.1 °F 97% 29.69 in 4.0 mi ENE 16.1 mph 21.9 mph 0.13 in Rain Rain
7:05 AM 51.1 °F - 48.9 °F 92% 29.71 in 4.0 mi NE 18.4 mph 28.8 mph 0.03 in Rain Rain
7:53 AM 44.1 °F 35.9 °F 42.1 °F 93% 29.75 in 4.0 mi NNE 19.6 mph 29.9 mph 0.19 in Rain Rain
8:17 AM 42.1 °F 32.3 °F 39.0 °F 89% 29.77 in 2.0 mi NE 24.2 mph 31.1 mph 0.08 in Rain Rain
8:26 AM 41.0 °F 30.9 °F 39.0 °F 93% 29.78 in 2.0 mi NE 24.2 mph 32.2 mph 0.11 in Rain Rain
8:39 AM 39.9 °F 29.0 °F 37.9 °F 93% 29.79 in 1.8 mi NNE 26.5 mph 35.7 mph 0.17 in Rain Heavy Rain
8:43 AM 39.9 °F 29.2 °F 37.0 °F 89% 29.79 in 2.5 mi NE 25.3 mph 35.7 mph 0.17 in Rain Rain
8:46 AM 39.9 °F 28.8 °F 37.0 °F 89% 29.79 in 3.0 mi NE 27.6 mph 35.7 mph 0.18 in Rain Rain
8:53 AM 39.0 °F 28.5 °F 37.0 °F 93% 29.78 in 3.0 mi NNE 23.0 mph 33.4 mph 0.20 in Rain Rain
9:00 AM 39.0 °F 27.6 °F 36.0 °F 89% 29.79 in 3.0 mi NNE 27.6 mph 35.7 mph 0.01 in Rain Rain
9:53 AM 35.1 °F 22.5 °F 32.0 °F 89% 29.81 in 6.0 mi NE 26.5 mph 34.5 mph 0.08 in Rain Light Rain
10:04 AM 35.1 °F 23.3 °F 32.0 °F 89% 29.81 in 5.0 mi NNE 23.0 mph 38.0 mph 0.02 in Rain Light Rain
10:12 AM 35.1 °F 22.7 °F 32.0 °F 89% 29.82 in 4.0 mi NNE 25.3 mph 35.7 mph 0.04 in Rain Rain
10:53 AM 34.0 °F 22.7 °F 30.9 °F 89% 29.83 in 4.0 mi NNE 19.6 mph 35.7 mph 0.12 in Rain Rain
11:53 AM 33.1 °F 20.9 °F 30.9 °F 92% 29.86 in 3.0 mi NNE 21.9 mph 29.9 mph 0.04 in Rain Light Rain
12:02 PM 32.0 °F 20.1 °F 30.0 °F 92% 29.85 in 2.5 mi NNE 19.6 mph 31.1 mph 0.00 in Snow Light Snow
12:14 PM 32.0 °F 18.9 °F 30.0 °F 92% 29.86 in 3.0 mi NNE 24.2 mph 32.2 mph 0.01 in Snow Light Snow
12:53 PM 30.9 °F 18.1 °F 28.9 °F 92% 29.88 in 3.0 mi NNE 21.9 mph 36.8 mph 0.02 in   Overcast
1:01 PM 30.9 °F 17.8 °F 28.0 °F 89% 29.87 in 2.0 mi NNE 23.0 mph 31.1 mph 0.00 in   Overcast
1:09 PM 30.9 °F 17.2 °F 28.0 °F 89% 29.86 in 1.8 mi NNE 25.3 mph 35.7 mph 0.01 in   Overcast
1:16 PM 30.9 °F 18.4 °F 28.0 °F 89% 29.86 in 2.0 mi NNE 20.7 mph 35.7 mph 0.02 in   Overcast
1:23 PM 30.9 °F 17.8 °F 28.0 °F 89% 29.86 in 2.0 mi NNE 23.0 mph 31.1 mph 0.02 in   Overcast
1:53 PM 30.0 °F 16.9 °F 27.0 °F 88% 29.88 in 3.0 mi NNE 21.9 mph 33.4 mph 0.05 in   Overcast
2:11 PM 30.0 °F 18.3 °F 27.0 °F 88% 29.87 in 2.5 mi North 17.3 mph 32.2 mph 0.03 in   Overcast
2:44 PM 30.0 °F 17.2 °F 27.0 °F 88% 29.86 in 3.0 mi NNE 20.7 mph 32.2 mph 0.07 in   Overcast
2:48 PM 30.2 °F 17.1 °F 26.6 °F 86% 29.86 in 2.5 mi North 21.9 mph 32.2 mph 0.07 in   Overcast
2:53 PM 30.0 °F 17.2 °F 27.0 °F 88% 29.88 in 2.5 mi NNE 20.7 mph 33.4 mph 0.08 in   Overcast
3:07 PM 30.0 °F 17.2 °F 27.0 °F 88% 29.87 in 3.0 mi NNE 20.7 mph 34.5 mph 0.01 in   Overcast
3:18 PM 30.0 °F 15.2 °F 26.1 °F 85% 29.87 in 2.0 mi NNE 28.8 mph 39.1 mph 0.01 in Snow Light Snow
3:32 PM 30.0 °F 16.9 °F 27.0 °F 88% 29.88 in 4.0 mi NNE 21.9 mph 33.4 mph 0.01 in Snow Light Snow
3:53 PM 30.0 °F 17.2 °F 26.1 °F 85% 29.90 in 4.0 mi NNE 20.7 mph 29.9 mph 0.02 in Snow Light Snow
4:05 PM 30.0 °F 17.9 °F 26.1 °F 85% 29.90 in 1.8 mi North 18.4 mph 26.5 mph 0.01 in Snow Light Snow
4:53 PM 30.0 °F 16.9 °F 26.1 °F 85% 29.92 in 2.5 mi NNE 21.9 mph 28.8 mph 0.03 in Snow Light Snow
5:02 PM 30.0 °F 18.7 °F 26.1 °F 85% 29.91 in 3.0 mi NNE 16.1 mph 24.2 mph 0.00 in Snow Light Snow
5:34 PM 30.0 °F 18.3 °F 26.1 °F 85% 29.93 in 5.0 mi NNE 17.3 mph 26.5 mph 0.00 in Snow Light Snow
5:53 PM 30.0 °F 17.9 °F 25.0 °F 82% 29.94 in 4.0 mi NNE 18.4 mph 28.8 mph 0.00 in Snow Light Snow
6:11 PM 30.0 °F 17.2 °F 25.0 °F 82% 29.93 in 3.0 mi North 20.7 mph 32.2 mph 0.00 in Snow Light Snow
6:53 PM 30.0 °F 17.2 °F 25.0 °F 82% 29.96 in 10.0 mi North 20.7 mph 26.5 mph 0.01 in   Overcast
7:13 PM 30.0 °F 20.0 °F 25.0 °F 82% 29.95 in 10.0 mi North 12.7 mph 23.0 mph N/A   Overcast
7:53 PM 28.9 °F 17.3 °F 23.0 °F 78% 29.99 in 10.0 mi North 16.1 mph 26.5 mph N/A   Overcast
8:53 PM 28.9 °F 16.1 °F 21.0 °F 72% 30.01 in 10.0 mi North 19.6 mph 28.8 mph N/A   Overcast
9:27 PM 28.0 °F 15.7 °F 19.0 °F 69% 29.99 in 10.0 mi North 17.3 mph 32.2 mph N/A   Overcast
9:53 PM 28.0 °F 15.7 °F 18.0 °F 66% 30.03 in 10.0 mi North 17.3 mph 28.8 mph N/A   Overcast
10:53 PM 28.0 °F 16.1 °F 17.1 °F 63% 30.04 in 10.0 mi NNE 16.1 mph 25.3 mph N/A   Overcast
11:50 PM 26.6 °F 13.4 °F 15.8 °F 64% 30.01 in 10.0 mi North 18.4 mph 27.6 mph N/A   Overcast
11:53 PM 26.1 °F 13.1 °F 16.0 °F 66% 30.04 in 10.0 mi North 17.3 mph 27.6 mph N/A   Overcast